Probability
0 0 0 0 0 0 0 0 0 0 0 0 0 0 0 0 0 0 0 0 0 0 0 0 0 0 0 0 0 0 0 0 0 0 0 0 0 0 0 0 0 0 0
0 0 0 0 0 0 0 0 0 0 0 0 0 0 0 0 0 0 0 0 0 0 0 0 0 0 0 0 0 0 0 0 0 0 0 0 0 0 0 0 0 0 0
0 0 0 0 0 0 0 0 0 0 0 0 0 0 0 0 0 0 0 0 0 0 0 0 0 0 0 0 0 0 0 0 0 0 0 0 0 0 0 0 0 0 0
0 0 0 0 0 0 0 0 0 0 0 0 0 0 0 0 0 0 0 0 0 0 0 0 0 0 0 0 0 0 0 0 0 0 0 0 0 0 0 0 0 0 0
0 0 0 0 0 0 0 0 0 0 0 0 0 0 0 0 0 0 0 0 0 0 0 0 0 0 0 0 0 0 0 0 0 0 0 0 0 0 0 0 0 0 0
0 0 0 0 0 0 0 0 0 0 0 0 0 0 0 0 0 0 0 0 0 0 0 0 0 0 0 0 0 0 0 0 0 0 0 0 0 0 0 0 0 0 0
0 0 0 0 0 0 0 0 0 0 0 0 0 0 0 0 0 0 0 0 0 0 0 0 0 0 0 0 0 0 0 0 0 0 0 0 0 0 0 0 0 0 0
0 0 0 0 0 0 0 0 0 0 0 0 0 0 0 0 0 0 0 0 0 0 0 0 0 0 0 0 0 0 0 0 0 0 0 0 0 0 0 0 0 0 0
0 0 0 0 0 0 0 0 0 0 0 0 0 0 0 0 0 0 0 0 0 0 0 0 0 0 0 0 0 0 0 0 0 0 0 0 0 0 0 0 0 0 0
0 0 0 0 0 0 0 0 0 0 0 0 0 0 0 0 0 0 0 0 0 0 0 0 0 0 0 0 0 0 0 0 0 0 0 0 0 0 0 0 0 0 0
0 0 0 0 0 0 0 0 0 0 0 0 0 0 0 0 0 0 0 0 0 0 0 0 0 0 0 0 0 0 0 0 0 0 0 0 0 0 0 0 0 0 0
0 0 0 0 0 0 0 0 0 0 0 0 0 0 0 0 0 0 0 0 0 0 0 0 0 0 0 0 0 0 0 0 0 0 0 0 0 0 0 0 0 0 0
0 0 0 0 0 0 0 0 0 0 0 0 0 0 0 0 0 0 0 0 0 0 0 0 0 0 0 0 0 0 0 0 0 0 0 0 0 0 0 0 0 0 0
0 0 0 0 0 0 0 0 0 0 0 0 0 0 0 0 0 0 0 0 0 0 0 0 0 0 0 0 0 0 0 0 0 0 0 0 0 0 0 0 0 0 0
0 0 0 0 0 0 0 0 0 0 0 0 0 0 0 0 0 0 0 0 0 0 0 0 0 0 0 0 0 0 0 0 0 0 0 0 0 0 0 0 0 0 0
0 0 0 0 0 0 0 0 0 0 0 0 0 0 0 0 0 0 0 0 0 0 0 0 0 0 0 0 0 0 0 0 0 0 0 0 0 0 0 0 0 0 0
0 0 0 0 0 0 0 0 0 0 0 0 0 0 0 0 0 0 0 0 0 0 0 0 0 0 0 0 0 0 0 0 0 0 0 0 0 0 0 0 0 0 0
0 0 0 0 0 0 0 0 0 0 0 0 0 0 0 0 0 0 0 0 0 0 0 0 0 0 0 0 0 0 0 0 0 0 0 0 0 0 0 0 0 0 0
0 0 0 0 0 0 0 0 0 0 0 0 0 0 0 0 0 0 0 0 0 0 0 0 0 0 0 0 0 0 0 0 0 0 0 0 0 0 0 0 0 0 0
0 0 0 0 0 0 0 0 0 0 0 0 0 0 0 0 0 0 0 0 0 0 0 0 0 0 0 0 0 0 0 0 0 0 0 0 0 0 0 0 0 0 0
0 0 0 0 0 0 0 0 0 0 0 0 0 0 0 0 0 0 0 0 0 0 0 0 0 0 0 0 0 0 0 0 0 0 0 0 0 0 0 0 0 0 0
0 0 0 0 0 0 0 0 0 0 0 0 0 0 0 0 0 0 0 0 0 0 0 0 0 0 0 0 0 0 0 0 0 0 0 0 0 0 0 0 0 0 0
0 0 0 0 0 0 0 0 0 0 0 0 0 0 0 0 0 0 0 0 0 0 0 0 0 0 0 0 0 0 0 0 0 0 0 0 0 0 0 0 0 0 0
0 0 0 0 0 0 0 0 0 0 0 0 0 0 0 0 0 0 0 0 0 0 0 0 0 0 0 0 0 0 0 0 0 0 0 0 0 0 0 0 0 0 0
0 0 0 0 0 0 0 0 0 0 0 0 0 0 0 0 0 0 0 0 0 0 0 0 0 0 0 0 0 0 0 0 0 0 0 0 0 0 0 0 0 0 0
0 0 0 0 0 0 0 0 0 0 0 0 0 0 0 0 0 0 0 0 0 0 0 0 0 0 0 0 0 0 0 0 0 0 0 0 0 0 0 0 0 0 0
Wind_Speed
5 6 7 7 7 8 7 7 7 6 6 6 6 6 6 5 5 4 4 3 3 2 2 1 1 2 2 2 2 2 3 3 8 7 3 4 5 6 7 6 7 7 8
5 7 8 8 8 9 8 7 7 7 6 6 6 7 6 6 5 5 4 4 3 3 3 2 2 2 2 2 2 3 3 3 5 10 7 5 6 7 7 8 7 7 7
6 8 8 8 8 9 8 7 7 7 7 6 6 6 6 5 5 4 4 4 3 2 2 2 3 3 3 3 3 4 3 4 4 7 9 5 5 5 7 7 7 6 7
7 8 8 7 8 8 8 7 7 7 7 6 6 6 5 5 5 4 3 3 2 2 2 2 2 3 3 4 4 4 4 5 5 7 8 7 6 5 5 7 9 6 6
8 8 8 7 7 8 8 7 7 7 6 6 6 5 5 4 3 3 3 2 2 2 2 2 3 3 5 5 4 5 5 5 6 7 8 9 7 7 7 6 10 10 8
8 8 7 8 8 7 7 7 7 6 6 6 5 5 4 3 5 5 3 2 1 2 2 3 3 3 4 8 10 9 8 7 8 7 8 10 11 9 8 8 10 11 10
8 8 7 7 8 7 7 7 6 5 5 5 5 4 4 3 5 4 4 2 1 2 2 3 3 3 4 5 8 10 9 11 12 9 10 11 11 10 10 11 10 11 12
8 8 7 7 8 7 6 6 5 4 4 4 4 3 3 2 4 4 3 1 1 2 3 3 4 5 5 7 6 7 7 7 9 7 8 10 10 9 9 10 11 11 10
8 8 7 7 8 7 7 6 4 4 4 3 3 3 2 2 4 4 3 0 1 2 3 3 4 5 9 12 8 8 9 7 10 13 14 15 17 17 13 8 8 8 9
8 7 6 6 7 7 6 5 3 3 3 3 3 2 2 1 4 4 4 0 2 3 3 4 5 6 11 13 7 7 10 9 7 8 9 11 10 10 12 7 6 7 7
8 8 6 6 6 6 5 4 4 3 3 3 2 2 1 1 3 5 5 1 2 3 4 4 4 11 14 15 12 7 11 12 8 7 7 7 6 5 5 5 5 6 7
8 8 7 6 5 5 5 4 4 4 4 3 2 1 1 1 3 4 6 6 5 3 4 4 6 14 15 15 11 11 14 11 5 6 6 6 6 5 5 5 6 5 5
9 8 7 6 4 4 5 5 4 3 3 2 1 0 1 1 3 5 6 7 9 5 4 9 12 14 13 9 11 13 8 5 5 6 6 6 5 5 5 5 5 4 4
9 8 7 6 5 4 3 3 3 3 3 2 1 1 1 2 2 2 2 3 5 6 5 6 10 11 9 8 6 6 4 4 5 6 6 6 5 4 4 4 4 5 4
9 7 6 5 5 4 3 2 2 2 3 3 2 2 2 2 3 6 5 3 4 5 5 4 3 3 4 4 4 4 4 4 5 5 5 5 5 5 4 4 4 4 3
9 7 6 5 4 4 4 2 1 1 2 2 2 1 2 4 7 8 9 9 10 10 5 3 3 3 4 5 5 5 4 4 5 5 5 5 5 5 5 4 3 3 3
8 8 6 5 5 5 4 4 3 0 0 0 1 2 3 5 6 7 8 9 9 7 3 3 3 4 4 4 5 5 5 5 4 4 5 5 5 4 4 4 4 3 3
6 7 6 5 5 5 4 4 3 3 2 1 2 4 4 5 6 7 7 5 4 3 2 3 4 4 4 4 5 5 5 4 4 4 4 4 4 4 4 4 3 4 3
7 5 5 4 4 4 4 3 3 3 2 2 1 3 4 5 5 5 4 1 2 3 3 4 4 4 4 4 5 5 5 4 4 4 4 4 4 4 4 4 3 4 3
5 7 6 5 5 4 4 4 4 3 3 3 3 3 2 1 1 2 1 2 2 3 4 4 4 4 4 4 5 4 4 4 4 4 4 4 3 3 4 4 3 3 3
5 6 7 5 5 5 5 5 4 4 4 3 4 4 5 2 3 3 3 3 3 4 4 4 4 4 4 4 4 4 5 4 4 4 4 4 3 3 3 3 3 3 2
6 6 6 5 5 5 4 4 4 4 4 4 3 4 6 2 3 3 4 4 4 4 4 4 4 4 4 4 4 5 5 5 4 4 4 4 3 3 3 3 3 2 2
6 6 5 5 4 5 4 4 4 4 4 4 4 4 3 3 4 4 4 4 4 4 4 4 5 5 4 4 4 5 5 6 5 4 5 4 4 4 3 3 3 3 3
6 7 6 6 5 5 5 5 5 5 5 4 4 4 4 4 4 5 5 5 4 5 4 4 5 7 8 6 4 4 5 6 5 5 6 5 5 4 4 4 4 4 3
7 7 7 6 6 6 5 5 5 5 5 5 5 5 4 5 5 5 5 5 5 6 6 6 5 6 8 9 7 6 8 10 8 5 5 5 6 5 4 4 4 3 3
7 7 6 6 6 6 6 6 6 6 5 5 5 5 5 5 5 5 5 5 5 6 6 5 7 8 8 7 9 10 11 11 10 9 6 5 6 5 5 4 4 4 4
Wind_Direction
115 115 115 114 114 112 112 112 111 105 103 103 102 96 90 82 77 82 76 72 77 58 39 16 326 322 308 302 294 283 273 271 279 287 278 306 305 304 305 298 295 294 297
110 107 107 107 107 106 105 104 104 103 98 99 100 96 89 83 77 81 78 66 64 48 23 13 350 342 328 326 315 298 289 283 286 295 301 305 299 300 299 299 299 299 293
110 108 105 105 106 107 107 105 103 103 99 92 94 95 93 88 82 75 77 71 62 45 17 3 345 344 332 325 314 305 301 300 288 291 297 296 295 300 304 299 294 291 292
113 111 108 107 108 108 106 102 99 100 100 95 91 92 93 90 87 83 79 74 59 35 10 354 338 332 320 318 311 304 302 300 295 293 295 300 299 298 301 307 308 301 296
120 115 112 109 106 104 102 99 95 91 92 96 95 88 87 91 91 91 82 71 49 14 353 338 324 319 314 314 308 305 304 299 300 298 298 302 304 313 311 309 306 309 298
125 121 119 115 110 106 105 104 100 96 94 92 91 94 86 78 79 76 75 68 35 356 331 322 313 308 313 319 316 311 306 301 300 296 297 298 303 306 307 306 307 310 308
128 126 125 123 117 114 113 109 106 103 101 96 91 90 84 70 64 59 56 62 11 329 316 314 316 312 310 303 306 309 304 298 296 292 291 294 299 303 304 302 300 299 297
134 133 132 128 123 120 115 112 109 106 106 104 97 91 89 58 44 41 46 60 333 313 306 303 304 307 308 310 303 299 293 289 291 287 278 286 291 294 290 293 299 297 291
144 144 141 137 133 130 126 124 120 117 109 105 105 95 85 39 17 16 30 28 329 320 312 304 300 297 308 317 314 303 300 294 298 295 293 295 299 302 304 302 298 299 300
153 145 139 138 137 136 133 128 119 119 114 109 98 84 76 20 359 8 14 32 330 318 310 305 300 301 310 314 307 300 300 302 300 300 297 298 298 297 303 293 289 292 296
138 133 131 130 130 130 124 120 125 118 110 99 90 66 47 19 354 358 357 358 310 307 305 304 301 311 312 310 309 297 296 306 305 301 298 296 295 294 296 290 283 283 288
133 133 131 127 126 127 126 124 122 125 117 104 88 60 29 4 350 344 343 335 327 295 292 296 299 309 312 313 312 307 311 314 305 302 299 299 301 302 303 301 296 292 284
135 136 134 126 122 129 134 136 131 125 124 129 127 122 321 330 322 329 326 327 325 313 293 301 307 311 314 313 310 313 316 307 299 297 296 296 298 299 302 303 304 303 301
142 143 143 140 135 130 130 136 141 152 154 156 168 209 275 288 286 289 289 306 313 310 303 302 308 313 314 313 311 313 308 297 293 291 294 296 301 302 303 307 307 314 316
145 147 148 146 145 143 138 153 164 186 183 179 192 197 228 273 287 309 316 306 305 300 311 309 312 318 320 318 317 313 308 306 302 299 297 300 302 304 305 311 308 312 308
154 158 159 155 151 150 149 138 166 174 204 210 200 213 254 289 312 316 316 316 317 319 320 307 305 306 304 307 308 308 306 306 308 306 302 299 299 301 304 308 308 305 302
163 163 160 158 159 162 161 160 166 190 235 127 334 314 299 308 314 316 318 321 324 335 320 296 294 297 297 298 297 297 298 301 303 299 299 301 300 297 298 302 306 306 304
161 162 161 164 165 167 169 172 173 172 186 255 309 309 309 312 313 316 327 341 334 342 294 282 283 285 285 288 290 292 295 300 299 295 294 297 300 298 296 295 296 297 299
166 166 163 161 162 164 163 165 172 179 193 219 280 306 318 317 324 327 358 9 284 284 280 277 275 278 281 282 282 283 285 286 287 289 289 290 295 298 293 288 289 292 294
172 169 164 163 163 166 169 174 180 186 197 212 231 248 281 310 306 305 309 267 262 265 269 273 276 278 280 280 280 280 281 280 281 280 283 287 289 289 289 288 285 288 287
170 171 168 168 177 179 181 186 187 188 201 217 231 241 246 227 241 251 258 260 259 261 264 267 270 274 274 275 276 276 274 274 272 273 276 279 283 286 286 284 283 282 286
172 174 177 182 182 186 189 188 187 196 207 222 237 256 263 246 239 248 252 256 257 254 252 255 262 261 260 261 265 268 269 270 269 268 271 273 274 276 280 281 281 284 279
175 175 178 183 184 186 188 193 196 204 213 221 227 235 245 244 244 248 253 257 259 260 257 251 259 264 260 255 251 250 257 261 258 256 262 266 265 264 265 267 267 273 271
180 182 185 187 187 191 197 202 208 212 216 221 226 232 237 241 246 252 255 256 257 258 255 251 253 259 265 265 259 252 251 256 254 249 247 253 258 258 254 254 255 255 258
183 186 190 192 194 197 201 207 213 215 218 223 228 234 239 243 249 253 254 255 259 261 261 258 255 257 262 264 263 261 264 268 264 246 236 240 247 247 244 245 246 248 247
189 192 195 195 198 200 203 210 216 219 222 227 230 234 238 244 249 252 254 255 258 260 263 259 255 257 261 263 264 268 266 265 259 247 229 230 235 238 232 236 237 237 238